| time (UTC) | temp F | wind direction | speed MPH | gust MPH | rain 1hr in | rain 24hr in | rain mn in | humidity % | barometer mb |
| 20260507081517 | 52 | 199 | 1.0 | 4.0 | 0.00 | 0.00 | 0.00 | 89 | 1021.3 |
| 20260507080518 | 52 | 182 | 1.0 | 4.0 | 0.00 | 0.00 | 0.00 | 89 | 1021.3 |
| 20260507075519 | 53 | 193 | 2.0 | 4.0 | 0.00 | 0.00 | 0.00 | 89 | 1021.2 |
| 20260507074518 | 53 | 218 | 4.0 | 7.0 | 0.00 | 0.00 | 0.00 | 89 | 1021.2 |
| 20260507073517 | 53 | 182 | 2.0 | 7.0 | 0.00 | 0.00 | 0.00 | 89 | 1021.3 |
| 20260507072518 | 53 | 206 | 3.0 | 7.0 | 0.00 | 0.00 | 0.00 | 89 | 1021.2 |
| 20260507071517 | 53 | 200 | 3.0 | 7.0 | 0.00 | 0.00 | 0.00 | 89 | 1021.1 |
| 20260507070518 | 53 | 215 | 2.0 | 7.0 | 0.00 | 0.00 | 0.00 | 89 | 1021.1 |
| 20260507065537 | 53 | 189 | 2.0 | 7.0 | 0.00 | 0.00 | 0.00 | 89 | 1021.2 |
| 20260507064517 | 53 | 177 | 4.0 | 8.0 | 0.00 | 0.00 | 0.00 | 89 | 1021.1 |
| 20260507063518 | 53 | 196 | 4.0 | 9.0 | 0.00 | 0.00 | 0.00 | 89 | 1021.0 |
| 20260507062517 | 53 | 184 | 3.0 | 8.0 | 0.00 | 0.00 | 0.00 | 89 | 1021.0 |
| 20260507061517 | 54 | 179 | 6.0 | 11.0 | 0.00 | 0.00 | 0.00 | 88 | 1021.1 |
| 20260507060518 | 54 | 194 | 4.0 | 10.0 | 0.00 | 0.00 | 0.00 | 88 | 1021.2 |
| 20260507055517 | 54 | 199 | 3.0 | 7.0 | 0.00 | 0.00 | 0.00 | 87 | 1021.2 |
| 20260507054518 | 54 | 163 | 3.0 | 7.0 | 0.00 | 0.00 | 0.00 | 87 | 1021.3 |
| 20260507053518 | 55 | 188 | 1.0 | 2.0 | 0.00 | 0.00 | 0.00 | 86 | 1021.3 |
| 20260507052516 | 55 | 187 | 2.0 | 4.0 | 0.00 | 0.00 | 0.00 | 86 | 1021.4 |
| 20260507051517 | 55 | 0.0 | 0.0 | 0.00 | 0.00 | 0.00 | 86 | 1021.3 | |
| 20260507050518 | 55 | 0.0 | 2.0 | 0.00 | 0.00 | 0.00 | 86 | 1021.3 | |
| 20260507045518 | 55 | 184 | 1.0 | 2.0 | 0.00 | 0.00 | 0.00 | 85 | 1021.3 |
| 20260507044517 | 55 | 184 | 1.0 | 6.0 | 0.00 | 0.00 | 0.00 | 85 | 1021.2 |
| 20260507043518 | 55 | 207 | 1.0 | 4.0 | 0.00 | 0.00 | 0.00 | 84 | 1021.2 |
| 20260507042516 | 55 | 210 | 3.0 | 6.0 | 0.00 | 0.00 | 0.00 | 84 | 1021.2 |
| 20260507041517 | 55 | 189 | 1.0 | 6.0 | 0.00 | 0.00 | 0.00 | 83 | 1021.2 |
| 20260507040518 | 56 | 216 | 2.0 | 7.0 | 0.00 | 0.00 | 0.00 | 83 | 1021.1 |
| 20260507035516 | 56 | 189 | 4.0 | 7.0 | 0.00 | 0.00 | 0.00 | 83 | 1021.0 |
| 20260507034517 | 56 | 197 | 2.0 | 7.0 | 0.00 | 0.00 | 0.00 | 82 | 1021.0 |
| 20260507033516 | 56 | 265 | 2.0 | 6.0 | 0.00 | 0.00 | 0.00 | 82 | 1020.9 |
| 20260507032518 | 56 | 224 | 2.0 | 6.0 | 0.00 | 0.00 | 0.00 | 81 | 1020.9 |
| 20260507031516 | 56 | 241 | 2.0 | 7.0 | 0.00 | 0.00 | 0.00 | 80 | 1020.8 |
| 20260507030517 | 56 | 263 | 1.0 | 7.0 | 0.00 | 0.00 | 0.00 | 80 | 1020.7 |
| 20260507025518 | 57 | 260 | 3.0 | 7.0 | 0.00 | 0.00 | 0.00 | 80 | 1020.6 |
| 20260507024517 | 57 | 238 | 2.0 | 8.0 | 0.00 | 0.00 | 0.00 | 79 | 1020.6 |
| 20260507023518 | 57 | 222 | 3.0 | 8.0 | 0.00 | 0.00 | 0.00 | 79 | 1020.5 |
| 20260507022517 | 57 | 266 | 3.0 | 10.0 | 0.00 | 0.00 | 0.00 | 79 | 1020.5 |
| 20260507021518 | 57 | 180 | 3.0 | 6.0 | 0.00 | 0.00 | 0.00 | 79 | 1020.4 |
| 20260507020537 | 57 | 254 | 3.0 | 8.0 | 0.00 | 0.00 | 0.00 | 79 | 1020.3 |
| 20260507015538 | 57 | 256 | 2.0 | 9.0 | 0.00 | 0.00 | 0.00 | 79 | 1020.4 |
| 20260507014518 | 57 | 226 | 3.0 | 8.0 | 0.00 | 0.00 | 0.00 | 78 | 1020.5 |
| 20260507013517 | 58 | 225 | 2.0 | 7.0 | 0.00 | 0.00 | 0.00 | 79 | 1020.5 |
| 20260507012518 | 57 | 218 | 1.0 | 4.0 | 0.00 | 0.00 | 0.00 | 79 | 1020.6 |
| 20260507011537 | 57 | 180 | 2.0 | 6.0 | 0.00 | 0.00 | 0.00 | 79 | 1020.5 |
| 20260507010517 | 58 | 238 | 2.0 | 7.0 | 0.00 | 0.00 | 0.00 | 79 | 1020.6 |
| 20260507005518 | 57 | 207 | 2.0 | 6.0 | 0.00 | 0.00 | 0.00 | 79 | 1020.6 |
| 20260507004517 | 57 | 234 | 4.0 | 9.0 | 0.00 | 0.00 | 0.00 | 78 | 1020.6 |
| 20260507003518 | 58 | 212 | 3.0 | 8.0 | 0.00 | 0.00 | 0.00 | 79 | 1020.6 |
| 20260507002517 | 57 | 233 | 1.0 | 6.0 | 0.00 | 0.00 | 0.00 | 79 | 1020.7 |
| 20260507001518 | 57 | 186 | 4.0 | 8.0 | 0.00 | 0.00 | 0.00 | 79 | 1020.7 |
| 20260507000517 | 57 | 199 | 4.0 | 11.0 | 0.00 | 0.00 | 0.00 | 78 | 1020.7 |
| 20260506235538 | 57 | 214 | 3.0 | 8.0 | 0.00 | 0.00 | 0.00 | 78 | 1020.7 |
| 20260506234517 | 58 | 202 | 2.0 | 7.0 | 0.00 | 0.00 | 0.00 | 77 | 1020.7 |
| 20260506233518 | 58 | 222 | 4.0 | 9.0 | 0.00 | 0.00 | 0.00 | 76 | 1020.7 |
| 20260506232516 | 58 | 234 | 3.0 | 7.0 | 0.00 | 0.00 | 0.00 | 76 | 1020.7 |
| 20260506231537 | 58 | 204 | 4.0 | 10.0 | 0.00 | 0.00 | 0.00 | 75 | 1020.7 |
| 20260506230557 | 58 | 237 | 4.0 | 8.0 | 0.00 | 0.00 | 0.00 | 76 | 1020.8 |
| 20260506225517 | 58 | 193 | 5.0 | 10.0 | 0.00 | 0.00 | 0.00 | 75 | 1020.8 |
| 20260506224519 | 58 | 232 | 4.0 | 7.0 | 0.00 | 0.00 | 0.00 | 75 | 1020.8 |
| 20260506223517 | 58 | 197 | 5.0 | 13.0 | 0.00 | 0.00 | 0.00 | 74 | 1020.8 |
| 20260506222558 | 59 | 197 | 5.0 | 14.0 | 0.00 | 0.00 | 0.00 | 73 | 1020.9 |
| 20260506221517 | 58 | 200 | 3.0 | 7.0 | 0.00 | 0.00 | 0.00 | 75 | 1020.9 |
| 20260506220518 | 58 | 198 | 4.0 | 9.0 | 0.00 | 0.00 | 0.00 | 74 | 1021.0 |
| 20260506215516 | 58 | 186 | 6.0 | 10.0 | 0.00 | 0.00 | 0.00 | 74 | 1021.0 |
| 20260506214517 | 57 | 176 | 4.0 | 11.0 | 0.00 | 0.00 | 0.00 | 75 | 1021.0 |
| 20260506213516 | 57 | 273 | 2.0 | 10.0 | 0.00 | 0.00 | 0.00 | 76 | 1021.0 |
| 20260506212517 | 58 | 256 | 1.0 | 8.0 | 0.00 | 0.00 | 0.00 | 76 | 1021.0 |
| 20260506211518 | 57 | 239 | 3.0 | 7.0 | 0.00 | 0.00 | 0.00 | 76 | 1021.1 |
| 20260506210517 | 58 | 225 | 3.0 | 7.0 | 0.00 | 0.00 | 0.00 | 76 | 1021.0 |
| 20260506205518 | 58 | 270 | 3.0 | 8.0 | 0.00 | 0.00 | 0.00 | 77 | 1021.0 |
| 20260506204517 | 58 | 206 | 2.0 | 7.0 | 0.00 | 0.00 | 0.00 | 76 | 1020.9 |
| 20260506203519 | 58 | 226 | 3.0 | 9.0 | 0.00 | 0.00 | 0.00 | 76 | 1020.9 |
| 20260506202539 | 58 | 233 | 4.0 | 16.0 | 0.00 | 0.00 | 0.00 | 76 | 1020.9 |
| 20260506201517 | 58 | 288 | 3.0 | 9.0 | 0.00 | 0.00 | 0.00 | 77 | 1020.9 |
| 20260506200518 | 57 | 259 | 2.0 | 6.0 | 0.00 | 0.00 | 0.00 | 78 | 1020.8 |
| 20260506195517 | 57 | 277 | 3.0 | 7.0 | 0.00 | 0.00 | 0.00 | 80 | 1020.8 |
| 20260506194518 | 57 | 258 | 3.0 | 8.0 | 0.00 | 0.00 | 0.00 | 80 | 1020.7 |
| 20260506193517 | 57 | 214 | 4.0 | 9.0 | 0.00 | 0.00 | 0.00 | 80 | 1020.7 |
| 20260506192518 | 56 | 210 | 2.0 | 10.0 | 0.00 | 0.00 | 0.00 | 81 | 1020.7 |
| 20260506191517 | 56 | 191 | 4.0 | 9.0 | 0.00 | 0.00 | 0.00 | 82 | 1020.6 |
| 20260506190518 | 56 | 193 | 4.0 | 9.0 | 0.00 | 0.00 | 0.00 | 83 | 1020.5 |
| 20260506185518 | 56 | 214 | 3.0 | 8.0 | 0.00 | 0.00 | 0.00 | 85 | 1020.6 |
| 20260506184517 | 55 | 232 | 0.0 | 3.0 | 0.00 | 0.00 | 0.00 | 88 | 1020.7 |
| 20260506183518 | 55 | 232 | 2.0 | 7.0 | 0.00 | 0.00 | 0.00 | 89 | 1020.7 |
| 20260506182537 | 55 | 227 | 3.0 | 8.0 | 0.00 | 0.00 | 0.00 | 89 | 1020.7 |
| 20260506181519 | 55 | 203 | 3.0 | 9.0 | 0.00 | 0.00 | 0.00 | 88 | 1020.7 |
| 20260506180516 | 55 | 217 | 3.0 | 8.0 | 0.00 | 0.00 | 0.00 | 89 | 1020.4 |
| 20260506175517 | 54 | 199 | 4.0 | 11.0 | 0.00 | 0.00 | 0.00 | 89 | 1020.2 |
| 20260506174518 | 54 | 206 | 3.0 | 10.0 | 0.00 | 0.00 | 0.00 | 90 | 1020.3 |
| 20260506173558 | 54 | 207 | 3.0 | 7.0 | 0.00 | 0.00 | 0.00 | 91 | 1020.3 |
| 20260506172518 | 54 | 233 | 3.0 | 6.0 | 0.00 | 0.00 | 0.00 | 91 | 1020.5 |
| 20260506171521 | 54 | 257 | 2.0 | 7.0 | 0.00 | 0.00 | 0.00 | 91 | 1020.5 |
| 20260506170537 | 54 | 267 | 2.0 | 8.0 | 0.00 | 0.00 | 0.00 | 91 | 1020.5 |
| 20260506165536 | 54 | 221 | 1.0 | 6.0 | 0.00 | 0.00 | 0.00 | 91 | 1020.4 |
| 20260506164518 | 54 | 207 | 2.0 | 4.0 | 0.00 | 0.00 | 0.00 | 90 | 1020.3 |
| 20260506163518 | 54 | 172 | 3.0 | 10.0 | 0.00 | 0.00 | 0.00 | 89 | 1020.2 |
| 20260506162517 | 54 | 203 | 4.0 | 9.0 | 0.00 | 0.00 | 0.00 | 89 | 1020.1 |
| 20260506161539 | 54 | 191 | 5.0 | 10.0 | 0.00 | 0.00 | 0.00 | 89 | 1019.9 |
| 20260506160538 | 54 | 218 | 3.0 | 7.0 | 0.00 | 0.00 | 0.00 | 90 | 1019.7 |
| 20260506155518 | 54 | 203 | 2.0 | 8.0 | 0.00 | 0.00 | 0.00 | 90 | 1019.8 |
| 20260506154517 | 54 | 195 | 3.0 | 8.0 | 0.00 | 0.00 | 0.00 | 90 | 1019.9 |
| 20260506153516 | 53 | 226 | 3.0 | 8.0 | 0.00 | 0.00 | 0.00 | 91 | 1020.2 |
| 20260506152517 | 53 | 218 | 2.0 | 9.0 | 0.00 | 0.00 | 0.00 | 92 | 1020.2 |
| 20260506151518 | 53 | 196 | 3.0 | 7.0 | 0.00 | 0.00 | 0.00 | 92 | 1020.0 |
| 20260506150517 | 53 | 206 | 5.0 | 9.0 | 0.00 | 0.00 | 0.00 | 93 | 1019.7 |
| 20260506145518 | 53 | 182 | 3.0 | 8.0 | 0.00 | 0.00 | 0.00 | 92 | 1019.8 |
| 20260506144537 | 54 | 194 | 2.0 | 3.0 | 0.00 | 0.00 | 0.00 | 92 | 1019.8 |
| 20260506143517 | 53 | 223 | 3.0 | 7.0 | 0.00 | 0.00 | 0.00 | 92 | 1020.0 |
| 20260506142517 | 54 | 219 | 4.0 | 7.0 | 0.00 | 0.00 | 0.00 | 91 | 1019.8 |
| 20260506141518 | 54 | 215 | 3.0 | 7.0 | 0.00 | 0.00 | 0.00 | 91 | 1019.6 |
| 20260506140517 | 54 | 189 | 2.0 | 6.0 | 0.00 | 0.00 | 0.00 | 90 | 1019.5 |
| 20260506135539 | 54 | 184 | 3.0 | 7.0 | 0.00 | 0.00 | 0.00 | 90 | 1019.6 |
| 20260506134538 | 54 | 204 | 2.0 | 6.0 | 0.00 | 0.00 | 0.00 | 90 | 1019.6 |
| 20260506133517 | 54 | 197 | 2.0 | 6.0 | 0.00 | 0.00 | 0.00 | 90 | 1019.5 |
| 20260506132538 | 54 | 240 | 2.0 | 7.0 | 0.00 | 0.00 | 0.00 | 90 | 1019.5 |
| 20260506131517 | 54 | 220 | 2.0 | 6.0 | 0.00 | 0.00 | 0.00 | 90 | 1019.3 |
| 20260506130518 | 54 | 148 | 3.0 | 6.0 | 0.00 | 0.00 | 0.00 | 89 | 1019.0 |
| 20260506125516 | 54 | 195 | 3.0 | 7.0 | 0.00 | 0.00 | 0.00 | 89 | 1019.1 |
| 20260506124518 | 54 | 189 | 2.0 | 4.0 | 0.00 | 0.00 | 0.00 | 89 | 1019.1 |
| 20260506123518 | 54 | 200 | 2.0 | 7.0 | 0.00 | 0.00 | 0.00 | 89 | 1019.0 |
| 20260506122516 | 54 | 179 | 3.0 | 7.0 | 0.00 | 0.00 | 0.00 | 89 | 1018.9 |
| 20260506121518 | 54 | 188 | 3.0 | 6.0 | 0.00 | 0.00 | 0.00 | 89 | 1018.9 |
| 20260506120518 | 54 | 211 | 3.0 | 6.0 | 0.00 | 0.00 | 0.00 | 88 | 1018.9 |
| 20260506115517 | 54 | 184 | 5.0 | 9.0 | 0.00 | 0.00 | 0.00 | 88 | 1018.8 |
| 20260506114518 | 54 | 202 | 3.0 | 7.0 | 0.00 | 0.00 | 0.00 | 88 | 1018.7 |
| 20260506113537 | 54 | 200 | 4.0 | 9.0 | 0.00 | 0.00 | 0.00 | 88 | 1018.6 |
| 20260506112538 | 54 | 202 | 3.0 | 7.0 | 0.00 | 0.00 | 0.00 | 88 | 1018.6 |
| 20260506111517 | 54 | 207 | 2.0 | 6.0 | 0.00 | 0.00 | 0.00 | 88 | 1018.5 |
| 20260506110537 | 54 | 209 | 2.0 | 7.0 | 0.00 | 0.00 | 0.00 | 87 | 1018.5 |
| 20260506105517 | 54 | 199 | 2.0 | 6.0 | 0.00 | 0.00 | 0.00 | 87 | 1018.4 |
| 20260506104517 | 54 | 206 | 3.0 | 7.0 | 0.00 | 0.00 | 0.00 | 87 | 1018.4 |
| 20260506103539 | 54 | 205 | 2.0 | 6.0 | 0.00 | 0.00 | 0.00 | 87 | 1018.3 |
| 20260506102517 | 54 | 205 | 2.0 | 6.0 | 0.00 | 0.00 | 0.00 | 87 | 1018.2 |
| 20260506101518 | 54 | 231 | 3.0 | 8.0 | 0.00 | 0.00 | 0.00 | 87 | 1018.2 |
| 20260506100517 | 54 | 268 | 3.0 | 7.0 | 0.00 | 0.00 | 0.00 | 87 | 1018.2 |
| 20260506095519 | 54 | 226 | 4.0 | 10.0 | 0.00 | 0.00 | 0.00 | 87 | 1018.1 |
| 20260506094517 | 55 | 202 | 2.0 | 7.0 | 0.00 | 0.00 | 0.00 | 87 | 1017.9 |
| 20260506093518 | 55 | 215 | 3.0 | 7.0 | 0.00 | 0.00 | 0.00 | 87 | 1017.9 |
| 20260506092537 | 55 | 237 | 3.0 | 7.0 | 0.00 | 0.00 | 0.00 | 87 | 1017.8 |
| 20260506091538 | 55 | 204 | 2.0 | 6.0 | 0.00 | 0.00 | 0.00 | 87 | 1017.7 |
| 20260506090540 | 55 | 220 | 1.0 | 3.0 | 0.00 | 0.00 | 0.00 | 87 | 1017.7 |
| 20260506085537 | 54 | 221 | 2.0 | 6.0 | 0.00 | 0.00 | 0.00 | 88 | 1017.6 |
| 20260506084518 | 55 | 220 | 1.0 | 3.0 | 0.00 | 0.00 | 0.00 | 87 | 1017.5 |
| 20260506083517 | 55 | 220 | 1.0 | 3.0 | 0.00 | 0.00 | 0.00 | 87 | 1017.3 |
| 20260506082518 | 55 | 220 | 2.0 | 4.0 | 0.00 | 0.00 | 0.00 | 87 | 1017.3 |